THORAD AGENA D DEB, 19948

Orbit data source: Space-Track

THORAD AGENA D DEB, 19948 is space debris in SSO originally from a launch on Wed, 08 Apr 1970 UTC launched from the Air Force Western Test Range (AFWTR). Debris objects in space refer to the collection of defunct objects orbiting the Earth. Examples of debris include non-operational satellites, rocket bodies, and fragments generated from explosions, collisions, or faulty payload assembly.

Loading next visibility...
Identifier
19948, 1970-025QD
Orbit
SSO
Country
Flag of USUS
Related business
Manufacturer
Unknown
Mission
Spacecraft
Bus & Motor
Unknown
Mass
Unknown
Launch date (UTC)
1970-04-08 (56 years ago)
Launch vehicle
Unknown
Launch site
Air Force Western Test Range (AFWTR)
Object type
Payload
Rocket body
Debris
Shape & HBR
Unknown shape, 0.1 m
Radar Cross Section
Small (<0.1 m²)

Expand to show TLE details & history
Last TLE update: 3 days ago

TLE from 3 days ago
0 THORAD AGENA D DEB
1 19948U 70025QD  26034.56892844  .00000189  00000-0  74894-3 0  9999
2 19948  99.5875 253.0376 0412087 345.5365  39.1237 12.74818974622494
Epoch: 2026-02-03T13:39Z
TLE epoch observation values (Epoch: 2026-02-03T13:39:15.417Z)
Latitude
27.38167°
Longitude
-90.51783°
Altitude
1,123.533 km
Speed
7.406 km/s
True Right ascension
16h 32m 10s
True Declination
27° 14' 54"
Sunlit
Object was in daylight at epoch
Visualization orbit readout
Latitude
Unknown
Longitude
Unknown
Altitude
Unknown
Speed
Unknown
Apparent Right ascension
Unknown
Apparent Declination
Unknown
Sunlit
N/A
Visualization observer readout
Local Sidereal Time
04:22:07
Azimuth
Unknown
Elevation
Unknown
Doppler factor
Unknown
Orbital elements
Apogee altitude
1,678.631 km
Perigee altitude
1,040.893 km
Semi-major axis
7,737.899 km
Eccentricity
0.04121
Inclination
99.5875°
RAAN
253.0376°
Arg. of periapsis
345.5365°
True anomaly
42.22566°
Mean anomaly
39.1237°
Eccentric anomaly
40.66218°
Mean motion
3.18866 °/min
Orbital period
112.9 mins
BSTAR
0.00074894
Loading maneuver chart data...
Computing Atmospheric mass density...

Documentation

Showing up to 5 results
|